This is the latest recevied weather packets stored in our database for station/object KQ7A. If no packets are shown the sender has not sent any weather packets the latest 10 day(s).
| Time | Temp. | Humidity | Pressure | Rain* | Wind** | Luminosity | Snow |
|---|---|---|---|---|---|---|---|
| 1777579484 | 18.89° C | 30% | 1018.6 hPa | 0 mm | - | 750 W/m² | - |
| 1777579180 | 18.89° C | 27% | 1018.8 hPa | 0 mm | - | 759 W/m² | - |
| 1777578875 | 18.89° C | 29% | 1019 hPa | 0 mm | - | 761 W/m² | - |
| 1777578571 | 18.89° C | 32% | 1019 hPa | 0 mm | - | 759 W/m² | - |
| 1777578266 | 19.44° C | 28% | 1018.6 hPa | 0 mm | - | 769 W/m² | - |
| 1777577962 | 18.33° C | 26% | 1019 hPa | 0 mm | - | 783 W/m² | - |
| 1777577657 | 18.89° C | 27% | 1019 hPa | 0 mm | - | 775 W/m² | - |
| 1777577355 | 18.33° C | 27% | 1019.1 hPa | 0 mm | - | 790 W/m² | - |
| 1777577050 | 18.33° C | 25% | 1019.1 hPa | 0 mm | - | 786 W/m² | - |
| 1777576748 | 18.33° C | 27% | 1019.2 hPa | 0 mm | - | 774 W/m² | - |
| 1777576446 | 18.89° C | 27% | 1019.2 hPa | 0 mm | - | 807 W/m² | - |
| 1777576144 | 17.78° C | 30% | 1019.4 hPa | 0 mm | - | 812 W/m² | - |
| 1777575838 | 17.78° C | 31% | 1019.4 hPa | 0 mm | - | 831 W/m² | - |
| 1777575535 | 17.22° C | 29% | 1019.6 hPa | 0 mm | - | 841 W/m² | - |
| 1777575231 | 17.78° C | 29% | 1019.3 hPa | 0 mm | - | 831 W/m² | - |
| 1777574927 | 17.78° C | 28% | 1019.7 hPa | 0 mm | - | 858 W/m² | - |
| 1777574624 | 17.78° C | 31% | 1019.7 hPa | 0 mm | - | 864 W/m² | - |
| 1777574321 | 17.78° C | 38% | 1019.8 hPa | 0 mm | - | 873 W/m² | - |
| 1777574016 | 17.78° C | 32% | 1019.7 hPa | 0 mm | - | 879 W/m² | - |
| 1777573716 | 17.22° C | 30% | 1019.8 hPa | 0 mm | - | 887 W/m² | - |
| 1777573413 | 17.22° C | 35% | 1019.7 hPa | 0 mm | - | 913 W/m² | - |
| 1777573108 | 17.22° C | 36% | 1020 hPa | 0 mm | - | 918 W/m² | - |
| 1777572805 | 16.67° C | 33% | 1019.9 hPa | 0 mm | - | 933 W/m² | - |
| 1777572501 | 16.67° C | 36% | 1020 hPa | 0 mm | - | 943 W/m² | - |
| 1777572196 | 16.11° C | 33% | 1019.9 hPa | 0 mm | - | 934 W/m² | - |
* Rain latest hour (hover to see other rain measurements)
** Current wind speed in m/s (hover to see current wind gust speed)